CES1207 ZHHH-ZGGG

Flight info

Callsign CES1207
Flight time N/A
Altitude 25600
Route OLMIB W37 VIKEB V66 VESUX W45 IKAVO
Aircraft A320/M-SDE3FGHIRWY/LB1

Departure

Time 2026-05-06 15:06
Airport Wuhan Tianhe International Airport (ZHHH)

Arrival

Time N/A
Airport Guangzhou Baiyun International Airport (ZGGG)
Time Latitude Longitude Altitude Speed Heading
2026-05-06 14:28 30.77894 114.21129 111 ft 0 kts 223°
2026-05-06 14:49 30.77899 114.21135 111 ft 2 kts 223°
2026-05-06 14:50 30.77911 114.21148 109 ft 2 kts 223°
2026-05-06 14:50 30.77923 114.21161 111 ft 2 kts 223°
2026-05-06 14:50 30.77934 114.21174 109 ft 2 kts 223°
2026-05-06 14:50 30.77949 114.21188 110 ft 5 kts 220°
2026-05-06 14:51 30.77976 114.21215 108 ft 4 kts 220°
2026-05-06 14:51 30.78003 114.21241 109 ft 5 kts 220°
2026-05-06 14:51 30.78022 114.21260 110 ft 0 kts 220°
2026-05-06 14:54 30.77985 114.21217 111 ft 10 kts 236°
2026-05-06 14:54 30.77988 114.21178 109 ft 5 kts 303°
2026-05-06 14:54 30.77995 114.21171 111 ft 4 kts 311°
2026-05-06 14:55 30.78029 114.21127 111 ft 10 kts 312°
2026-05-06 14:55 30.78087 114.21051 112 ft 15 kts 310°
2026-05-06 14:55 30.78167 114.20946 111 ft 19 kts 312°
2026-05-06 14:55 30.78148 114.20853 111 ft 15 kts 215°
2026-05-06 14:56 30.78055 114.20753 111 ft 20 kts 222°
2026-05-06 14:56 30.77936 114.20636 110 ft 25 kts 220°
2026-05-06 14:56 30.77799 114.20494 109 ft 28 kts 221°
2026-05-06 14:56 30.77671 114.20364 108 ft 22 kts 220°
2026-05-06 14:57 30.77557 114.20248 107 ft 22 kts 221°
2026-05-06 14:57 30.77443 114.20130 106 ft 23 kts 221°
2026-05-06 14:57 30.77345 114.20031 106 ft 13 kts 221°
2026-05-06 14:57 30.77276 114.19959 106 ft 14 kts 222°
2026-05-06 14:58 30.77198 114.19878 105 ft 16 kts 221°
2026-05-06 14:58 30.77132 114.19796 105 ft 12 kts 254°
2026-05-06 14:58 30.77138 114.19767 103 ft 0 kts 301°
2026-05-06 15:02 30.77159 114.19736 103 ft 8 kts 311°
2026-05-06 15:02 30.77162 114.19733 104 ft 0 kts 311°
2026-05-06 15:02 30.77168 114.19725 103 ft 8 kts 311°
2026-05-06 15:03 30.77202 114.19681 103 ft 6 kts 314°
2026-05-06 15:03 30.77254 114.19671 104 ft 11 kts 45°
2026-05-06 15:03 30.77326 114.19740 104 ft 0 kts 37°
2026-05-06 15:05 30.77335 114.19750 104 ft 12 kts 43°
2026-05-06 15:05 30.77586 114.20012 105 ft 82 kts 42°
2026-05-06 15:06 30.78150 114.20620 110 ft 137 kts 40°
2026-05-06 15:06 30.78985 114.21458 187 ft 175 kts 42°
2026-05-06 15:06 30.79918 114.22409 688 ft 184 kts 42°
2026-05-06 15:06 30.80997 114.23221 1306 ft 187 kts 28°
2026-05-06 15:07 30.82222 114.23882 1691 ft 204 kts 26°
2026-05-06 15:07 30.83591 114.24589 1916 ft 226 kts 25°
2026-05-06 15:07 30.85104 114.25281 2262 ft 242 kts 11°
2026-05-06 15:07 30.86793 114.25278 2932 ft 245 kts 345°
2026-05-06 15:08 30.88335 114.24493 3699 ft 243 kts 320°
2026-05-06 15:08 30.89519 114.23123 4455 ft 242 kts 308°
2026-05-06 15:08 30.90639 114.21642 5263 ft 244 kts 308°
2026-05-06 15:08 30.91769 114.20149 6037 ft 246 kts 308°
2026-05-06 15:09 30.92906 114.18651 6756 ft 249 kts 308°
2026-05-06 15:09 30.94064 114.17129 7499 ft 251 kts 308°
2026-05-06 15:09 30.95229 114.15600 8268 ft 253 kts 309°
2026-05-06 15:09 30.96246 114.13936 9012 ft 253 kts 289°
2026-05-06 15:10 30.96480 114.11935 9728 ft 253 kts 261°
2026-05-06 15:10 30.95800 114.09997 10017 ft 273 kts 230°
2026-05-06 15:10 30.94377 114.08433 10225 ft 296 kts 221°
2026-05-06 15:10 30.92739 114.06785 10415 ft 320 kts 221°
2026-05-06 15:11 30.90995 114.05037 10558 ft 343 kts 221°
2026-05-06 15:11 30.89134 114.03162 10723 ft 362 kts 221°
2026-05-06 15:11 30.87215 114.01219 11219 ft 370 kts 222°
2026-05-06 15:11 30.85269 113.99239 11843 ft 373 kts 222°
2026-05-06 15:12 30.83308 113.97240 12501 ft 376 kts 222°
2026-05-06 15:12 30.82006 113.95915 12926 ft 378 kts 222°
2026-05-06 15:12 30.80023 113.93896 13548 ft 380 kts 222°
2026-05-06 15:12 30.78023 113.91863 14106 ft 383 kts 222°
2026-05-06 15:13 30.76003 113.89813 14639 ft 386 kts 223°
2026-05-06 15:13 30.73977 113.87767 15165 ft 388 kts 221°
2026-05-06 15:13 30.71692 113.86053 15653 ft 394 kts 207°
2026-05-06 15:13 30.69076 113.85048 16154 ft 400 kts 193°
2026-05-06 15:14 30.66283 113.84856 16636 ft 408 kts 178°
2026-05-06 15:14 30.63607 113.85479 17089 ft 416 kts 164°
2026-05-06 15:14 30.60780 113.86797 17585 ft 420 kts 160°
2026-05-06 15:14 30.58066 113.88104 18044 ft 423 kts 160°
2026-05-06 15:15 30.55332 113.89418 18446 ft 426 kts 161°
2026-05-06 15:15 30.52584 113.90733 18833 ft 429 kts 161°
2026-05-06 15:15 30.49813 113.92048 19223 ft 431 kts 161°
2026-05-06 15:15 30.47029 113.93362 19586 ft 434 kts 161°
2026-05-06 15:16 30.44257 113.94670 19952 ft 437 kts 161°
2026-05-06 15:16 30.41396 113.96025 20318 ft 440 kts 161°
2026-05-06 15:16 30.38554 113.97375 20679 ft 443 kts 161°
2026-05-06 15:16 30.35681 113.98674 21025 ft 443 kts 166°
2026-05-06 15:17 30.32686 113.99457 21363 ft 440 kts 177°
2026-05-06 15:17 30.29641 113.99598 21706 ft 437 kts 187°
2026-05-06 15:17 30.26648 113.99109 22045 ft 434 kts 197°
2026-05-06 15:17 30.23797 113.98034 22392 ft 430 kts 207°
2026-05-06 15:18 30.21072 113.96586 22732 ft 431 kts 208°
2026-05-06 15:18 30.18384 113.95145 23087 ft 432 kts 208°
2026-05-06 15:18 30.15655 113.93685 23414 ft 434 kts 208°
2026-05-06 15:18 30.12869 113.92195 23692 ft 436 kts 208°
2026-05-06 15:19 30.10120 113.90725 23949 ft 438 kts 208°
2026-05-06 15:19 30.07385 113.89262 24202 ft 439 kts 208°
2026-05-06 15:19 30.04571 113.87757 24460 ft 441 kts 208°
2026-05-06 15:19 30.01818 113.86286 24710 ft 443 kts 208°
2026-05-06 15:20 29.99014 113.84794 24963 ft 444 kts 208°
2026-05-06 15:20 29.96206 113.83302 25205 ft 446 kts 208°
2026-05-06 15:20 29.93379 113.81800 25384 ft 447 kts 208°
2026-05-06 15:20 29.90556 113.80301 25445 ft 447 kts 208°
2026-05-06 15:21 29.87634 113.79036 25448 ft 452 kts 200°
2026-05-06 15:21 29.84530 113.78312 25452 ft 458 kts 191°
2026-05-06 15:21 29.81339 113.78061 25447 ft 460 kts 188°
2026-05-06 15:21 29.78141 113.77854 25449 ft 460 kts 188°
2026-05-06 15:22 29.74946 113.77639 25448 ft 460 kts 188°
2026-05-06 15:22 29.71747 113.77414 25450 ft 460 kts 188°
2026-05-06 15:22 29.68550 113.77184 25451 ft 460 kts 188°
2026-05-06 15:22 29.65358 113.76957 25455 ft 460 kts 188°
2026-05-06 15:23 29.62180 113.76734 25454 ft 460 kts 188°
2026-05-06 15:23 29.58985 113.76508 25456 ft 460 kts 189°
2026-05-06 15:23 29.55915 113.76293 25455 ft 459 kts 189°
2026-05-06 15:23 29.52647 113.76067 25460 ft 459 kts 189°
2026-05-06 15:24 29.49473 113.75848 25460 ft 459 kts 189°
2026-05-06 15:24 29.46280 113.75629 25461 ft 459 kts 189°
2026-05-06 15:24 29.43096 113.75413 25466 ft 459 kts 189°
2026-05-06 15:24 29.39908 113.75194 25465 ft 459 kts 189°
2026-05-06 15:25 29.36722 113.74974 25465 ft 459 kts 189°
2026-05-06 15:25 29.33537 113.74752 25465 ft 458 kts 189°
2026-05-06 15:25 29.30354 113.74528 25472 ft 458 kts 189°
2026-05-06 15:25 29.27202 113.74306 25473 ft 459 kts 189°
2026-05-06 15:26 29.24004 113.74085 25475 ft 459 kts 188°
2026-05-06 15:26 29.20802 113.73970 25478 ft 461 kts 186°
2026-05-06 15:26 29.17585 113.74001 25478 ft 463 kts 184°
2026-05-06 15:26 29.14375 113.74129 25480 ft 463 kts 183°
2026-05-06 15:27 29.11142 113.74301 25482 ft 464 kts 183°
2026-05-06 15:27 29.07925 113.74474 25482 ft 464 kts 183°
2026-05-06 15:27 29.04697 113.74624 25484 ft 463 kts 184°
2026-05-06 15:27 29.01480 113.74741 25483 ft 463 kts 184°
2026-05-06 15:28 28.98261 113.74830 25486 ft 463 kts 184°
2026-05-06 15:28 28.95039 113.74907 25486 ft 463 kts 184°
2026-05-06 15:28 28.91804 113.74983 25491 ft 464 kts 184°
2026-05-06 15:28 28.88578 113.75065 25485 ft 464 kts 184°
2026-05-06 15:29 28.85350 113.75155 25489 ft 464 kts 184°
2026-05-06 15:29 28.82124 113.75249 25487 ft 465 kts 184°
2026-05-06 15:29 28.78933 113.75343 25492 ft 465 kts 184°
2026-05-06 15:29 28.75699 113.75441 25490 ft 465 kts 184°
2026-05-06 15:30 28.72470 113.75409 25491 ft 461 kts 189°
2026-05-06 15:30 28.69268 113.75168 25496 ft 462 kts 189°
2026-05-06 15:30 28.66060 113.74929 25498 ft 462 kts 189°
2026-05-06 15:30 28.62857 113.74692 25493 ft 462 kts 189°
2026-05-06 15:31 28.59651 113.74457 25496 ft 462 kts 188°
2026-05-06 15:31 28.56437 113.74220 25493 ft 462 kts 188°
2026-05-06 15:31 28.53227 113.73982 25491 ft 462 kts 188°
2026-05-06 15:32 28.46809 113.73511 25492 ft 462 kts 188°
2026-05-06 15:32 28.43592 113.73274 25491 ft 462 kts 188°
2026-05-06 15:32 28.40382 113.73039 25494 ft 463 kts 188°
2026-05-06 15:32 28.37168 113.72806 25488 ft 463 kts 188°
2026-05-06 15:33 28.33950 113.72574 25493 ft 463 kts 188°
2026-05-06 15:33 28.30741 113.72346 25492 ft 463 kts 188°
2026-05-06 15:33 28.27524 113.72119 25496 ft 463 kts 188°
2026-05-06 15:33 28.24311 113.71888 25493 ft 463 kts 188°
2026-05-06 15:34 28.21089 113.71652 25496 ft 463 kts 188°
2026-05-06 15:34 28.17875 113.71414 25489 ft 463 kts 188°
2026-05-06 15:34 28.14664 113.71146 25492 ft 461 kts 191°
2026-05-06 15:34 28.11535 113.70479 25493 ft 456 kts 200°
2026-05-06 15:35 28.08540 113.69349 25492 ft 453 kts 204°
2026-05-06 15:35 28.05574 113.68133 25493 ft 453 kts 204°
2026-05-06 15:35 28.02609 113.66927 25491 ft 453 kts 204°
2026-05-06 15:35 27.99642 113.65724 25489 ft 453 kts 204°
2026-05-06 15:36 27.96684 113.64527 25489 ft 453 kts 204°
2026-05-06 15:36 27.93700 113.63322 25493 ft 454 kts 204°
2026-05-06 15:36 27.90730 113.62123 25489 ft 453 kts 204°
2026-05-06 15:36 27.87756 113.60923 25486 ft 453 kts 204°
2026-05-06 15:37 27.84791 113.59726 25483 ft 453 kts 204°
2026-05-06 15:37 27.81828 113.58526 25482 ft 453 kts 204°
2026-05-06 15:37 27.78907 113.57341 25484 ft 453 kts 204°
2026-05-06 15:37 27.75933 113.56139 25481 ft 453 kts 204°
2026-05-06 15:38 27.72963 113.54941 25479 ft 454 kts 204°
2026-05-06 15:38 27.69992 113.53745 25480 ft 454 kts 204°
2026-05-06 15:38 27.67018 113.52547 25488 ft 454 kts 204°
2026-05-06 15:38 27.64009 113.51341 25492 ft 454 kts 203°
2026-05-06 15:39 27.60998 113.50221 25478 ft 455 kts 201°
2026-05-06 15:39 27.58005 113.49189 25488 ft 456 kts 200°
2026-05-06 15:39 27.54924 113.48176 25491 ft 456 kts 200°
2026-05-06 15:39 27.51906 113.47203 25490 ft 457 kts 200°
2026-05-06 15:40 27.48853 113.46213 25486 ft 457 kts 200°
2026-05-06 15:40 27.45804 113.45204 25487 ft 457 kts 200°
2026-05-06 15:40 27.42754 113.44173 25485 ft 457 kts 201°
2026-05-06 15:40 27.39715 113.43135 25487 ft 457 kts 201°
2026-05-06 15:41 27.36664 113.42087 25483 ft 458 kts 201°
2026-05-06 15:41 27.33620 113.41044 25490 ft 458 kts 200°
2026-05-06 15:41 27.30501 113.40231 25486 ft 461 kts 195°
2026-05-06 15:41 27.27372 113.39528 25490 ft 461 kts 195°
2026-05-06 15:42 27.24208 113.38819 25491 ft 461 kts 195°
2026-05-06 15:42 27.21056 113.38115 25487 ft 462 kts 195°
2026-05-06 15:42 27.17900 113.37410 25492 ft 462 kts 195°
2026-05-06 15:42 27.14750 113.36710 25491 ft 462 kts 195°
2026-05-06 15:43 27.11600 113.36014 25493 ft 462 kts 195°
2026-05-06 15:43 27.08443 113.35314 25491 ft 462 kts 195°
2026-05-06 15:43 27.05288 113.34611 25493 ft 462 kts 195°
2026-05-06 15:43 27.02131 113.33905 25492 ft 462 kts 195°
2026-05-06 15:44 26.98978 113.33200 25493 ft 462 kts 195°
2026-05-06 15:44 26.95824 113.32493 25489 ft 462 kts 195°
2026-05-06 15:44 26.92662 113.31786 25490 ft 463 kts 195°
2026-05-06 15:44 26.89508 113.31083 25489 ft 463 kts 195°
2026-05-06 15:45 26.86347 113.30379 25491 ft 463 kts 195°
2026-05-06 15:45 26.83190 113.29675 25491 ft 463 kts 195°
2026-05-06 15:45 26.80031 113.28971 25491 ft 463 kts 195°
2026-05-06 15:45 26.76874 113.28267 25493 ft 463 kts 195°
2026-05-06 15:46 26.73717 113.27567 25491 ft 463 kts 195°
2026-05-06 15:46 26.70551 113.26866 25494 ft 463 kts 195°
2026-05-06 15:46 26.67431 113.26178 25495 ft 463 kts 195°
2026-05-06 15:46 26.64268 113.25481 25494 ft 463 kts 195°
2026-05-06 15:47 26.61100 113.24782 25497 ft 463 kts 195°
2026-05-06 15:47 26.57949 113.24085 25497 ft 463 kts 195°
2026-05-06 15:47 26.54779 113.23385 25500 ft 463 kts 195°
2026-05-06 15:47 26.51625 113.22689 25497 ft 463 kts 195°
2026-05-06 15:48 26.48459 113.21990 25498 ft 464 kts 195°
2026-05-06 15:48 26.45290 113.21291 25501 ft 464 kts 195°
2026-05-06 15:48 26.42127 113.20593 25499 ft 463 kts 195°
2026-05-06 15:48 26.39018 113.19904 25499 ft 463 kts 195°
2026-05-06 15:49 26.35834 113.19196 25502 ft 464 kts 195°
2026-05-06 15:49 26.32664 113.18494 25504 ft 464 kts 195°
2026-05-06 15:49 26.29497 113.17796 25504 ft 464 kts 195°
2026-05-06 15:49 26.26334 113.17106 25505 ft 464 kts 194°
2026-05-06 15:50 26.23168 113.16414 25509 ft 464 kts 194°
2026-05-06 15:50 26.20012 113.15721 25502 ft 464 kts 194°
2026-05-06 15:50 26.16825 113.15023 25507 ft 464 kts 194°
2026-05-06 15:50 26.13670 113.14329 25508 ft 464 kts 194°
2026-05-06 15:51 26.10503 113.13632 25512 ft 464 kts 194°
2026-05-06 15:51 26.07332 113.12934 25513 ft 464 kts 194°
2026-05-06 15:51 26.04169 113.12238 25517 ft 464 kts 194°
2026-05-06 15:51 26.01002 113.11543 25517 ft 464 kts 194°
2026-05-06 15:52 25.97828 113.10847 25521 ft 464 kts 194°
2026-05-06 15:52 25.94687 113.10161 25523 ft 464 kts 194°
2026-05-06 15:52 25.91491 113.09462 25528 ft 464 kts 194°
2026-05-06 15:52 25.88322 113.08770 25529 ft 464 kts 194°
2026-05-06 15:53 25.85158 113.08082 25533 ft 465 kts 194°
2026-05-06 15:53 25.81982 113.07393 25539 ft 465 kts 194°
2026-05-06 15:53 25.78806 113.06703 25531 ft 465 kts 194°
2026-05-06 15:53 25.75639 113.06173 25540 ft 468 kts 187°
2026-05-06 15:54 25.72444 113.06046 25544 ft 469 kts 185°
2026-05-06 15:54 25.69094 113.05961 25541 ft 470 kts 185°
2026-05-06 15:54 25.65834 113.05884 25544 ft 470 kts 185°
2026-05-06 15:54 25.62642 113.05812 25549 ft 470 kts 184°
2026-05-06 15:55 25.59402 113.05737 25552 ft 470 kts 185°
2026-05-06 15:55 25.56092 113.05659 25551 ft 470 kts 185°
2026-05-06 15:55 25.52861 113.05578 25556 ft 471 kts 185°
2026-05-06 15:55 25.49587 113.05492 25555 ft 471 kts 185°
2026-05-06 15:56 25.46391 113.05406 25551 ft 471 kts 185°
2026-05-06 15:56 25.43118 113.05316 25558 ft 471 kts 185°
2026-05-06 15:56 25.39841 113.05230 25563 ft 471 kts 185°
2026-05-06 15:56 25.36563 113.05147 25558 ft 471 kts 185°
2026-05-06 15:57 25.33285 113.05067 25566 ft 471 kts 184°
2026-05-06 15:57 25.30008 113.04988 25567 ft 471 kts 185°
2026-05-06 15:57 25.26722 113.04908 25507 ft 476 kts 185°
2026-05-06 15:57 25.23405 113.04823 25315 ft 479 kts 184°
2026-05-06 15:58 25.20072 113.04736 25129 ft 480 kts 184°
2026-05-06 15:58 25.16720 113.04648 24902 ft 481 kts 184°
2026-05-06 15:58 25.13369 113.04562 24679 ft 482 kts 184°
2026-05-06 15:58 25.10011 113.04481 24456 ft 483 kts 184°
2026-05-06 15:59 25.06651 113.04401 24239 ft 484 kts 184°
2026-05-06 15:59 25.04423 113.04346 24095 ft 484 kts 184°
2026-05-06 15:59 24.99905 113.04237 23810 ft 485 kts 184°
2026-05-06 15:59 24.97670 113.04182 23669 ft 486 kts 184°
2026-05-06 16:00 24.94328 113.04101 23429 ft 487 kts 184°
2026-05-06 16:00 24.90866 113.04012 23174 ft 499 kts 184°
2026-05-06 16:00 24.86983 113.03910 22883 ft 498 kts 184°
2026-05-06 16:00 24.83769 113.03826 22854 ft 503 kts 184°
2026-05-06 16:01 24.80115 113.03730 23017 ft 504 kts 184°
2026-05-06 16:01 24.76606 113.03641 23209 ft 505 kts 184°
2026-05-06 16:01 24.73091 113.03557 23385 ft 504 kts 184°
2026-05-06 16:01 24.69755 113.03479 23211 ft 493 kts 184°
2026-05-06 16:02 24.66190 113.03391 22894 ft 491 kts 184°
2026-05-06 16:02 24.62799 113.03308 22637 ft 485 kts 184°
2026-05-06 16:02 24.59439 113.03226 22358 ft 480 kts 184°
2026-05-06 16:02 24.56119 113.03144 22025 ft 477 kts 184°
2026-05-06 16:03 24.52853 113.03061 21682 ft 475 kts 184°
2026-05-06 16:03 24.49553 113.02977 21361 ft 472 kts 184°
2026-05-06 16:03 24.46259 113.03088 21073 ft 483 kts 176°
2026-05-06 16:03 24.42892 113.03740 20948 ft 493 kts 170°
2026-05-06 16:04 24.39631 113.04674 20918 ft 476 kts 165°
2026-05-06 16:04 24.36522 113.05643 21238 ft 455 kts 169°
2026-05-06 16:04 24.33486 113.06412 21274 ft 444 kts 170°
2026-05-06 16:04 24.30429 113.07172 20257 ft 457 kts 170°
2026-05-06 16:05 24.27315 113.07940 19884 ft 460 kts 170°
2026-05-06 16:05 24.24210 113.08705 19693 ft 457 kts 170°
2026-05-06 16:05 24.21117 113.09507 19667 ft 456 kts 169°
2026-05-06 16:05 24.18051 113.10369 19671 ft 463 kts 168°
2026-05-06 16:06 24.14925 113.11276 19674 ft 464 kts 168°
2026-05-06 16:06 24.11808 113.12175 19672 ft 464 kts 168°
2026-05-06 16:06 24.08670 113.13060 19671 ft 464 kts 168°
2026-05-06 16:06 24.05541 113.13919 19602 ft 465 kts 169°
2026-05-06 16:07 24.02402 113.14764 19360 ft 462 kts 169°
2026-05-06 16:07 23.99291 113.15588 19150 ft 461 kts 169°
2026-05-06 16:07 23.96174 113.16407 18919 ft 459 kts 169°
2026-05-06 16:07 23.93076 113.17219 18696 ft 457 kts 169°
2026-05-06 16:08 23.89990 113.18032 18472 ft 455 kts 169°
2026-05-06 16:08 23.86916 113.18841 18246 ft 454 kts 169°
2026-05-06 16:08 23.83853 113.19650 17995 ft 452 kts 169°
2026-05-06 16:08 23.80975 113.20413 17753 ft 450 kts 169°
2026-05-06 16:09 23.77934 113.21221 17498 ft 449 kts 169°
2026-05-06 16:09 23.74917 113.22022 17052 ft 443 kts 169°
2026-05-06 16:09 23.71942 113.22814 16379 ft 438 kts 169°
2026-05-06 16:09 23.68968 113.23445 15728 ft 431 kts 175°
2026-05-06 16:10 23.66003 113.23630 15096 ft 424 kts 183°
2026-05-06 16:10 23.63151 113.23393 14481 ft 418 kts 190°
2026-05-06 16:10 23.60310 113.22827 13859 ft 414 kts 193°
2026-05-06 16:10 23.57503 113.22243 13179 ft 410 kts 193°
2026-05-06 16:11 23.54718 113.21669 12490 ft 405 kts 193°
2026-05-06 16:11 23.51952 113.21104 11826 ft 401 kts 193°
2026-05-06 16:11 23.49232 113.20549 11186 ft 397 kts 193°
2026-05-06 16:11 23.46695 113.20024 10578 ft 393 kts 193°
2026-05-06 16:12 23.44025 113.19461 9943 ft 389 kts 193°
2026-05-06 16:12 23.41385 113.18900 9243 ft 385 kts 193°
2026-05-06 16:12 23.38761 113.18342 8544 ft 381 kts 193°
2026-05-06 16:12 23.36208 113.17801 7874 ft 377 kts 192°
2026-05-06 16:13 23.33668 113.17263 7202 ft 373 kts 192°
2026-05-06 16:13 23.31075 113.16714 6533 ft 369 kts 192°
2026-05-06 16:13 23.28578 113.16184 6049 ft 359 kts 192°
2026-05-06 16:13 23.26187 113.15679 5890 ft 340 kts 192°
2026-05-06 16:14 23.23944 113.15209 5899 ft 318 kts 192°
2026-05-06 16:14 23.21896 113.14780 5901 ft 299 kts 192°
2026-05-06 16:14 23.20524 113.14493 5489 ft 301 kts 192°